Weather History for KBRO - November, 2013

Change the Weather History Date:

Thursday, November 14, 2013

  Actual Average Record
Temperature  
Mean Temperature 62 °F 70 °F  
Max Temperature 73 °F 80 °F 90 °F (1906)
Min Temperature 51 °F 60 °F 31 °F (1901)
Degree Days  
Heating Degree Days 3 1  
Month to date heating degree days 11 14  
Since 1 July heating degree days 11 18  
Cooling Degree Days 0 6  
Month to date cooling degree days 80 103  
Year to date cooling degree days 4027 3868  
Growing Degree Days 12 (Base 50)    
Moisture  
Dew Point 50 °F    
Average Humidity 69    
Maximum Humidity 84    
Minimum Humidity 53    
Precipitation  
Precipitation 0.00 in 0.07 in 1.84 in (1923)
Month to date precipitation 0.33 1.01  
Year to date precipitation 23.89 25.48  
Sea Level Pressure  
Sea Level Pressure 30.16 in    
Wind  
Wind Speed 6 mph (NNW)    
Max Wind Speed 13 mph    
Max Gust Speed 16 mph    
Visibility 10 miles    
Events      
T = Trace of Precipitation, MM = Missing Value Source: NWS Daily Summary

Daily Weather History Graph

Daily Weather History Graph

Search for Another Location

Airport or City:

Trip Planner

Search our weather history database for the weather conditions in past years. The results will help you decide how hot, cold, wet, or windy it might be!

Date:

Astronomy

Nov. 14, 2013 Rise Set
Actual Time 6:47 AM CST 5:40 PM CST
Civil Twilight 6:22 AM CST 6:05 PM CST
Nautical Twilight 5:55 AM CST 6:32 PM CST
Astronomical Twilight 5:27 AM CST 7:00 PM CST
Moon 3:49 PM CST (11/14) 3:59 AM CST (11/14)
Length of Visible Light 11h 42m
Length of Day
10h 53m
Waxing Gibbous, 92% of the Moon is Illuminated
Nov 14
Waxing Gibbous
Nov 17
Full
Nov 25
Last Quarter
Dec 2
New
Dec 9
First Quarter

Hourly Weather History & Observations

Time (CST) Temp. Dew Point Humidity Pressure Visibility Wind Dir Wind Speed Gust Speed Precip Events Conditions
12:53 AM 52.0 °F 37.0 °F 57% 30.35 in 10.0 mi NW 8.1 mph - N/A   Mostly Cloudy
1:53 AM 52.0 °F 39.0 °F 61% 30.31 in 10.0 mi NNW 8.1 mph - N/A   Mostly Cloudy
2:53 AM 51.1 °F 39.9 °F 66% 30.30 in 10.0 mi NW 8.1 mph - N/A   Partly Cloudy
3:53 AM 52.0 °F 39.9 °F 63% 30.27 in 10.0 mi NNW 8.1 mph - N/A   Clear
4:53 AM 52.0 °F 41.0 °F 66% 30.27 in 10.0 mi NNW 5.8 mph - N/A   Clear
5:53 AM 51.1 °F 41.0 °F 68% 30.25 in 10.0 mi NNW 5.8 mph - N/A   Clear
6:53 AM 51.1 °F 42.1 °F 71% 30.25 in 10.0 mi NNW 5.8 mph - N/A   Clear
7:53 AM 52.0 °F 43.0 °F 71% 30.26 in 10.0 mi NNW 6.9 mph - N/A   Clear
8:53 AM 55.0 °F 45.0 °F 69% 30.25 in 10.0 mi NNW 5.8 mph - N/A   Clear
9:53 AM 61.0 °F 48.9 °F 64% 30.23 in 10.0 mi North 5.8 mph - N/A   Clear
10:53 AM 64.0 °F 52.0 °F 65% 30.22 in 10.0 mi NNW 5.8 mph - N/A   Clear
11:53 AM 69.1 °F 55.0 °F 61% 30.19 in 10.0 mi North 4.6 mph - N/A   Clear
12:53 PM 72.0 °F 55.0 °F 55% 30.15 in 10.0 mi NW 4.6 mph - N/A   Clear
1:53 PM - - N/A% 30.12 in 10.0 mi North 4.6 mph - N/A   Clear
2:53 PM 73.0 °F 55.0 °F 53% 30.09 in 10.0 mi ESE 9.2 mph - N/A   Scattered Clouds
3:53 PM 72.0 °F 55.9 °F 57% 30.07 in 10.0 mi East 9.2 mph - N/A   Clear
4:53 PM 71.1 °F 55.9 °F 59% 30.05 in 10.0 mi ESE 9.2 mph - N/A   Clear
5:53 PM 70.0 °F 57.9 °F 65% 30.04 in 10.0 mi SE 6.9 mph - N/A   Clear
6:53 PM 69.1 °F 59.0 °F 70% 30.06 in 10.0 mi SSE 3.5 mph - N/A   Mostly Cloudy
7:53 PM 68.0 °F 62.1 °F 81% 30.07 in 10.0 mi Calm Calm - N/A   Scattered Clouds
8:53 PM 63.0 °F 57.0 °F 81% 30.08 in 10.0 mi NW 6.9 mph - N/A   Overcast
9:53 PM 62.1 °F 55.9 °F 80% 30.08 in 10.0 mi Calm Calm - N/A   Partly Cloudy
10:53 PM 62.1 °F 55.9 °F 80% 30.06 in 10.0 mi Calm Calm - N/A   Mostly Cloudy
11:53 PM 61.0 °F 55.9 °F 83% 30.04 in 10.0 mi Calm Calm - N/A   Clear